EW1867 Weather Reports


Display with metric or nautical units.
time (UTC)temp
F
wind
direction
speed
MPH
gust
MPH
rain 1hr
in
rain 24hr
in
rain mn
in
humidity
%
barometer
mb
20260901022026 69 204 2.0 6.0 0.00 0.00 0.00 66 1009.9
20260901021126 70 191 2.0 9.0 0.00 0.00 0.00 64 1009.9
20260901020226 71 182 2.0 10.0 0.00 0.00 0.00 63 1009.8
20260901015327 72 147 2.0 5.0 0.00 0.00 0.00 62 1009.8
20260901014426 72 214 2.0 7.0 0.00 0.00 0.00 60 1009.7
20260901012627 74 187 2.0 7.0 0.00 0.00 0.00 58 1009.6
20260901011726 74 195 2.0 7.0 0.00 0.00 0.00 57 1009.5
20260901010826 74 151 2.0 6.0 0.00 0.00 0.00 57 1009.6
20260901005926 75 157 2.0 6.0 0.00 0.00 0.00 56 1009.7
20260901005026 75 170 2.0 6.0 0.00 0.00 0.00 56 1009.6
20260901004126 76 145 2.0 7.0 0.00 0.00 0.00 55 1009.7
20260901001426 77 164 3.0 6.0 0.00 0.00 0.00 53 1009.6
20260901000526 77 198 3.0 7.0 0.00 0.00 0.00 53 1009.6
20260831234726 77 178 2.0 7.0 0.00 0.00 0.00 53 1009.6
20260831233826 78 203 2.0 6.0 0.00 0.00 0.00 52 1009.8
20260831232926 78 143 2.0 6.0 0.00 0.00 0.00 54 1009.9
20260831232026 78 211 2.0 6.0 0.00 0.00 0.00 53 1010.0
20260831231126 78 127 3.0 6.0 0.00 0.00 0.00 53 1010.2
20260831230226 78 147 2.0 8.0 0.00 0.00 0.00 52 1010.3
20260831225326 78 161 2.0 6.0 0.00 0.00 0.00 52 1010.4
20260831223526 78 108 2.0 8.0 0.00 0.00 0.00 53 1010.6
20260831222626 79 195 3.0 6.0 0.00 0.00 0.00 52 1010.6
20260831221726 79 146 2.0 8.0 0.00 0.00 0.00 53 1010.7
20260831220826 79 157 2.0 7.0 0.00 0.00 0.00 52 1010.8
20260831215926 79 198 2.0 7.0 0.00 0.00 0.00 52 1010.7
20260831215026 78 154 3.0 7.0 0.00 0.00 0.00 51 1010.9
20260831214126 79 172 2.0 6.0 0.00 0.00 0.00 52 1011.0
20260831213226 78 163 3.0 7.0 0.00 0.00 0.00 52 1011.2
20260831212326 79 220 2.0 8.0 0.00 0.00 0.00 52 1011.1
20260831211426 79 182 2.0 6.0 0.00 0.00 0.00 52 1011.1
20260831210526 78 125 2.0 6.0 0.00 0.00 0.00 52 1011.1
20260831205626 78 187 2.0 5.0 0.00 0.00 0.00 53 1011.2
20260831204726 77 209 2.0 5.0 0.00 0.00 0.00 54 1011.3
20260831203826 76 209 3.0 11.0 0.00 0.00 0.00 55 1011.2
20260831202926 77 213 2.0 11.0 0.00 0.00 0.00 54 1011.3
20260831202026 75 130 2.0 7.0 0.00 0.00 0.00 57 1011.5
20260831201126 75 159 2.0 8.0 0.00 0.00 0.00 57 1011.5
20260831200226 75 198 2.0 7.0 0.00 0.00 0.00 58 1011.6
20260831194426 75 169 2.0 6.0 0.00 0.00 0.00 57 1011.8
20260831193526 75 215 3.0 7.0 0.00 0.00 0.00 58 1011.9
20260831192626 74 226 3.0 10.0 0.00 0.00 0.00 59 1011.9
20260831185926 73 136 2.0 5.0 0.00 0.00 0.00 62 1012.0
20260831185026 72 160 2.0 5.0 0.00 0.00 0.00 61 1011.9
20260831184126 71 129 3.0 7.0 0.00 0.00 0.00 62 1011.9
20260831183226 71 190 3.0 8.0 0.00 0.00 0.00 63 1012.0
20260831182326 71 108 2.0 8.0 0.00 0.00 0.00 63 1012.1
20260831181426 71 158 2.0 5.0 0.00 0.00 0.00 62 1012.0
20260831174726 71 163 2.0 6.0 0.00 0.00 0.00 63 1012.0
20260831173826 70 140 2.0 6.0 0.00 0.00 0.00 64 1011.9
20260831172926 70 163 2.0 8.0 0.00 0.00 0.00 64 1011.9
20260831172027 69 202 3.0 7.0 0.00 0.00 0.00 66 1011.8
20260831171127 69 208 1.0 7.0 0.00 0.00 0.00 65 1011.7
20260831170226 70 192 2.0 5.0 0.00 0.00 0.00 66 1011.8
20260831165326 68 117 2.0 7.0 0.00 0.00 0.00 67 1011.8
20260831164426 68 93 1.0 7.0 0.00 0.00 0.00 67 1011.7
20260831162626 68 154 1.0 4.0 0.00 0.00 0.00 68 1011.6
20260831161726 67 126 1.0 4.0 0.00 0.00 0.00 68 1011.6
20260831160826 67 159 1.0 5.0 0.00 0.00 0.00 69 1011.6
20260831155927 66 121 1.0 6.0 0.00 0.00 0.00 71 1011.6
20260831154126 65 118 1.0 4.0 0.00 0.00 0.00 73 1011.4
20260831153226 64 145 1.0 4.0 0.00 0.00 0.00 74 1011.4
20260831152326 63 132 1.0 4.0 0.00 0.00 0.00 75 1011.4
20260831151426 62 164 1.0 5.0 0.00 0.00 0.00 76 1011.4
20260831150526 62 126 1.0 5.0 0.00 0.00 0.00 78 1011.3
20260831144726 61 129 1.0 3.0 0.00 0.00 0.00 78 1011.3
20260831142926 60 138 1.0 4.0 0.00 0.00 0.00 81 1011.1
20260831142026 59 115 1.0 3.0 0.00 0.00 0.00 82 1011.0
20260831141126 58 117 0.0 3.0 0.00 0.00 0.00 82 1010.9
20260831140226 58 147 0.0 2.0 0.00 0.00 0.00 83 1010.6
20260831135327 58 125 1.0 3.0 0.00 0.00 0.00 83 1010.5
20260831134426 58 0 0.0 2.0 0.00 0.00 0.00 83 1010.3
20260831133526 58 119 1.0 3.0 0.00 0.00 0.00 83 1010.1
20260831132626 58 119 0.0 4.0 0.00 0.00 0.00 83 1010.0
20260831131726 58 142 0.0 4.0 0.00 0.00 0.00 83 1010.1
20260831130826 59 133 1.0 3.0 0.00 0.00 0.00 82 1009.9
20260831125926 59 125 1.0 3.0 0.00 0.00 0.00 82 1009.8
20260831124126 59 123 1.0 3.0 0.00 0.00 0.00 82 1009.8
20260831123226 59 120 1.0 3.0 0.00 0.00 0.00 81 1009.7
20260831122326 60 127 1.0 3.0 0.00 0.00 0.00 80 1009.7
20260831121426 60 122 0.0 5.0 0.00 0.00 0.00 79 1009.7
20260831115626 60 116 0.0 4.0 0.00 0.00 0.00 78 1009.8
20260831114726 61 114 1.0 3.0 0.00 0.00 0.00 78 1009.8
20260831110227 62 112 1.0 3.0 0.00 0.00 0.00 73 1009.8
20260831105326 62 0 0.0 2.0 0.00 0.00 0.00 73 1009.7
20260831104426 62 0 0.0 2.0 0.00 0.00 0.00 72 1009.7
20260831101726 63 0 0.0 2.0 0.00 0.00 0.00 70 1009.6
20260831100826 63 0 0.0 3.0 0.00 0.00 0.00 71 1009.4
20260831095927 63 0 0.0 2.0 0.00 0.00 0.00 71 1009.5
20260831095026 63 0 0.0 4.0 0.00 0.00 0.00 71 1009.6
20260831094126 64 124 1.0 4.0 0.00 0.00 0.00 71 1009.6
20260831092326 64 111 1.0 3.0 0.00 0.00 0.00 70 1009.4
20260831090527 65 0 0.0 4.0 0.00 0.00 0.00 69 1009.6
20260831085626 65 107 1.0 4.0 0.00 0.00 0.00 69 1009.5
20260831084727 65 102 1.0 3.0 0.00 0.00 0.00 69 1009.5
20260831083827 65 109 0.0 3.0 0.00 0.00 0.00 69 1009.7
20260831082026 66 119 1.0 4.0 0.00 0.00 0.00 68 1009.5
20260831081127 66 117 1.0 3.0 0.00 0.00 0.00 67 1009.7
20260831080226 67 115 1.0 4.0 0.00 0.00 0.00 67 1009.8
20260831074426 67 106 0.0 4.0 0.00 0.00 0.00 66 1009.5
20260831073526 68 109 1.0 3.0 0.00 0.00 0.00 67 1009.5
20260831072626 68 104 1.0 3.0 0.00 0.00 0.00 65 1009.5
20260831070827 68 108 1.0 3.0 0.00 0.00 0.00 65 1009.6
20260831065926 68 100 1.0 4.0 0.00 0.00 0.00 64 1009.6
20260831065026 69 103 1.0 3.0 0.00 0.00 0.00 64 1009.6
20260831064126 69 106 1.0 5.0 0.00 0.00 0.00 64 1009.6
20260831063227 69 106 1.0 5.0 0.00 0.00 0.00 64 1009.6
20260831062326 69 101 1.0 5.0 0.00 0.00 0.00 63 1009.6
20260831061426 70 103 1.0 5.0 0.00 0.00 0.00 63 1009.6
20260831060527 70 102 1.0 3.0 0.00 0.00 0.00 63 1009.6
20260831055626 70 102 1.0 3.0 0.00 0.00 0.00 62 1009.5
20260831054726 71 114 1.0 5.0 0.00 0.00 0.00 62 1009.6
20260831053827 71 100 1.0 4.0 0.00 0.00 0.00 61 1009.4
20260831052926 72 113 1.0 3.0 0.00 0.00 0.00 60 1009.5
20260831052027 72 115 1.0 3.0 0.00 0.00 0.00 59 1009.4
20260831051126 73 117 0.0 3.0 0.00 0.00 0.00 58 1009.4
20260831045327 74 128 0.0 1.0 0.00 0.00 0.00 56 1009.3
20260831044427 74 205 1.0 2.0 0.00 0.00 0.00 55 1009.4
20260831043527 75 201 1.0 6.0 0.00 0.00 0.00 54 1009.3
20260831042627 76 175 0.0 2.0 0.00 0.00 0.00 52 1009.3
20260831041727 76 214 1.0 4.0 0.00 0.00 0.00 50 1009.1
20260831040826 77 218 1.0 4.0 0.00 0.00 0.00 49 1009.1
20260831035926 78 205 1.0 3.0 0.00 0.00 0.00 47 1008.8